Menomonie, WI

12:44 AM CDT on August 31, 2016 (GMT -0500)
Menomonie

Weather History for KLUM - June, 2013

Change the Weather History Date:

Saturday, June 29, 2013

  Actual Average (KEAU) Record (KEAU)
Temperature  
Mean Temperature 66 °F 71 °F  
Max Temperature 74 °F 82 °F 102 °F (1931)
Min Temperature 59 °F 59 °F 44 °F (1925)
Degree Days  
Heating Degree Days 0 1  
Month to date heating degree days 61  
Since 1 June heating degree days 61  
Since 1 July heating degree days 7958  
Cooling Degree Days 2 6  
Month to date cooling degree days 114  
Year to date cooling degree days 146  
Since 1 June cooling degree days 114  
Growing Degree Days 16 (Base 50)    
Moisture  
Dew Point 54 °F    
Average Humidity 65    
Maximum Humidity 86    
Minimum Humidity 43    
Precipitation  
Precipitation 0.00 in 0.13 in 2.21 in (1916)
Month to date precipitation 3.99  
Year to date precipitation 13.63  
Snow  
Snow 0.00 in 0.00 in 0.00 in ()
Month to date snowfall 0.0  
Since 1 June snowfall 0.0  
Since 1 July snowfall 46.8  
Snow Depth -    
Sea Level Pressure  
Sea Level Pressure 29.85 in    
Wind  
Wind Speed 9 mph (North)    
Max Wind Speed 17 mph    
Max Gust Speed 25 mph    
Visibility 10 miles    
Events Rain , Thunderstorm    
T = Trace of Precipitation, MM = Missing Value Source: NWS Daily Summary

Daily Weather History Graph

Daily Weather History Graph

Search for Another Location

Airport or City:

Trip Planner

Search our weather history database for the weather conditions in past years. The results will help you decide how hot, cold, wet, or windy it might be!

Date:

Astronomy

Jun. 29, 2013 Rise Set
Actual Time 5:24 AM CDT 8:57 PM CDT
Civil Twilight 4:46 AM CDT 9:34 PM CDT
Nautical Twilight 3:57 AM CDT 10:23 PM CDT
Astronomical Twilight 2:53 AM CDT 11:28 PM CDT
Moon 12:08 AM CDT (6/29) 12:56 PM CDT (6/29)
Length of Visible Light 16h 47m
Length of Day
15h 33m
Waning Gibbous, 55% of the Moon is Illuminated
Jun 29
Waning Gibbous
Jun 29
Last Quarter
Jul 8
New
Jul 15
First Quarter
Jul 22
Full

Hourly Weather History & Observations

Time (CDT) Temp. Dew Point Humidity Pressure Visibility Wind Dir Wind Speed Gust Speed Precip Events Conditions
12:15 AM 66.2 °F 61.7 °F 85% 29.75 in 10.0 mi NNW 5.8 mph - N/A   Overcast
12:35 AM 66.2 °F 61.5 °F 85% 29.75 in 10.0 mi North 6.9 mph - N/A   Mostly Cloudy
12:55 AM 65.8 °F 60.3 °F 82% 29.75 in 10.0 mi NNW 8.1 mph - N/A   Mostly Cloudy
1:15 AM 65.3 °F 59.9 °F 83% 29.75 in 10.0 mi NNW 8.1 mph - N/A   Scattered Clouds
1:35 AM 64.8 °F 59.2 °F 82% 29.75 in 10.0 mi NNW 8.1 mph - N/A   Mostly Cloudy
1:55 AM 64.8 °F 59.0 °F 82% 29.75 in 10.0 mi NNW 6.9 mph - N/A Rain Light Rain
2:15 AM 64.2 °F 59.4 °F 84% 29.75 in 10.0 mi NNW 5.8 mph - N/A   Overcast
2:35 AM 63.9 °F 59.4 °F 85% 29.75 in 10.0 mi NNW 5.8 mph - N/A   Overcast
2:55 AM 63.9 °F 59.0 °F 84% 29.74 in 10.0 mi NNW 8.1 mph - N/A   Overcast
3:15 AM 63.9 °F 58.8 °F 84% 29.74 in 10.0 mi North 9.2 mph - N/A Thunderstorm Overcast
3:35 AM 63.9 °F 58.6 °F 83% 29.74 in 10.0 mi North 6.9 mph - N/A   Overcast
3:55 AM 63.5 °F 59.2 °F 86% 29.74 in 10.0 mi North 4.6 mph - N/A   Overcast
4:15 AM 63.5 °F 57.4 °F 80% 29.75 in 10.0 mi NNE 9.2 mph - N/A   Overcast
4:35 AM 63.1 °F 57.4 °F 81% 29.75 in 10.0 mi North 8.1 mph - N/A   Overcast
4:55 AM 63.0 °F 57.4 °F 82% 29.76 in 10.0 mi North 5.8 mph - N/A   Overcast
5:15 AM 63.0 °F 57.4 °F 82% 29.77 in 10.0 mi North 9.2 mph - N/A   Overcast
5:35 AM 62.8 °F 57.4 °F 82% 29.77 in 10.0 mi North 6.9 mph - N/A   Overcast
5:55 AM 62.8 °F 58.1 °F 85% 29.77 in 10.0 mi North 5.8 mph - N/A   Overcast
6:15 AM 63.1 °F 58.1 °F 84% 29.78 in 10.0 mi North 8.1 mph - N/A   Overcast
6:35 AM 63.3 °F 58.3 °F 84% 29.78 in 10.0 mi North 6.9 mph - N/A   Overcast
6:55 AM 63.3 °F 58.3 °F 84% 29.79 in 10.0 mi North 5.8 mph - N/A   Overcast
7:15 AM 63.5 °F 58.1 °F 83% 29.79 in 10.0 mi North 8.1 mph - N/A   Overcast
7:35 AM 63.7 °F 57.7 °F 81% 29.79 in 10.0 mi North 9.2 mph - N/A   Overcast
7:55 AM 63.7 °F 57.4 °F 80% 29.80 in 10.0 mi North 11.5 mph 16.1 mph N/A   Overcast
8:15 AM 64.4 °F 56.5 °F 75% 29.80 in 10.0 mi North 11.5 mph - N/A   Overcast
8:35 AM 65.3 °F 57.0 °F 75% 29.80 in 10.0 mi North 13.8 mph - N/A   Overcast
8:55 AM 65.8 °F 56.1 °F 71% 29.81 in 10.0 mi North 11.5 mph - N/A   Overcast
9:15 AM 65.8 °F 55.9 °F 70% 29.82 in 10.0 mi North 11.5 mph 16.1 mph N/A   Overcast
9:35 AM 66.2 °F 55.9 °F 69% 29.83 in 10.0 mi North 10.4 mph - N/A   Overcast
9:55 AM 66.2 °F 54.1 °F 65% 29.83 in 10.0 mi North 17.3 mph 23.0 mph N/A   Overcast
10:15 AM 65.8 °F 54.1 °F 66% 29.83 in 10.0 mi NNE 13.8 mph 18.4 mph N/A   Overcast
10:35 AM 64.6 °F 53.1 °F 66% 29.85 in 10.0 mi North 16.1 mph 25.3 mph N/A   Light Drizzle
10:55 AM 64.6 °F 52.2 °F 64% 29.85 in 10.0 mi North 12.7 mph 16.1 mph N/A   Overcast
11:35 AM 64.6 °F 54.9 °F 71% 29.86 in 10.0 mi North 11.5 mph - N/A   Light Drizzle
11:55 AM 64.9 °F 54.5 °F 69% 29.86 in 10.0 mi North 11.5 mph - N/A   Overcast
12:15 PM 66.7 °F 54.7 °F 65% 29.86 in 10.0 mi North 9.2 mph - N/A   Overcast
12:35 PM 68.9 °F 54.5 °F 60% 29.86 in 10.0 mi North 9.2 mph 16.1 mph N/A   Overcast
12:55 PM 69.8 °F 53.6 °F 56% 29.87 in 10.0 mi North 12.7 mph - N/A   Mostly Cloudy
1:15 PM 70.9 °F 54.3 °F 56% 29.87 in 10.0 mi NNE 11.5 mph 16.1 mph N/A   Mostly Cloudy
1:35 PM 70.5 °F 54.3 °F 56% 29.87 in 10.0 mi North 10.4 mph - N/A   Overcast
1:55 PM 71.2 °F 54.1 °F 55% 29.86 in 10.0 mi North 17.3 mph 20.7 mph N/A   Mostly Cloudy
2:15 PM 71.6 °F 54.0 °F 54% 29.87 in 10.0 mi North 12.7 mph 18.4 mph N/A   Mostly Cloudy
2:35 PM 72.1 °F 53.8 °F 52% 29.87 in 10.0 mi NNE 9.2 mph - N/A   Overcast
2:55 PM 72.5 °F 54.0 °F 52% 29.87 in 10.0 mi North 13.8 mph 18.4 mph N/A   Overcast
3:15 PM 72.1 °F 53.8 °F 52% 29.87 in 10.0 mi North 13.8 mph 21.9 mph N/A   Overcast
3:35 PM 71.2 °F 52.9 °F 52% 29.88 in 10.0 mi North 11.5 mph 20.7 mph N/A   Overcast
3:55 PM 73.6 °F 52.9 °F 48% 29.87 in 10.0 mi North 13.8 mph 19.6 mph N/A   Scattered Clouds
4:15 PM 74.1 °F 51.4 °F 45% 29.87 in 10.0 mi North 16.1 mph 21.9 mph N/A   Scattered Clouds
4:35 PM 74.1 °F 51.1 °F 44% 29.88 in 10.0 mi NNE 16.1 mph 21.9 mph N/A   Scattered Clouds
4:55 PM 74.3 °F 51.8 °F 45% 29.88 in 10.0 mi North 11.5 mph - N/A   Clear
5:15 PM 73.4 °F 51.3 °F 46% 29.89 in 10.0 mi North 13.8 mph - N/A   Scattered Clouds
5:35 PM 72.9 °F 50.4 °F 45% 29.89 in 10.0 mi NNE 10.4 mph 19.6 mph N/A   Clear
5:55 PM 73.8 °F 50.5 °F 44% 29.89 in 10.0 mi North 16.1 mph 20.7 mph N/A   Clear
6:15 PM 74.1 °F 50.2 °F 43% 29.89 in 10.0 mi North 16.1 mph 23.0 mph N/A   Clear
6:35 PM 73.4 °F 50.2 °F 44% 29.90 in 10.0 mi North 11.5 mph 15.0 mph N/A   Scattered Clouds
6:55 PM 72.7 °F 50.0 °F 45% 29.90 in 10.0 mi North 12.7 mph - N/A   Scattered Clouds
7:15 PM 72.3 °F 50.0 °F 45% 29.91 in 10.0 mi North 13.8 mph 20.7 mph N/A   Clear
7:35 PM 71.6 °F 50.4 °F 47% 29.91 in 10.0 mi North 12.7 mph - N/A   Clear
7:55 PM 70.9 °F 51.4 °F 50% 29.91 in 10.0 mi North 9.2 mph - N/A   Clear
8:15 PM 70.0 °F 48.6 °F 46% 29.92 in 10.0 mi North 12.7 mph 23.0 mph N/A   Clear
8:35 PM 69.1 °F 48.6 °F 48% 29.92 in 10.0 mi North 10.4 mph - N/A   Clear
8:55 PM 68.0 °F 48.9 °F 50% 29.93 in 10.0 mi North 11.5 mph - N/A   Clear
9:15 PM 67.3 °F 47.3 °F 49% 29.93 in 10.0 mi North 10.4 mph - N/A   Clear
9:35 PM 65.7 °F 48.6 °F 54% 29.95 in 10.0 mi North 10.4 mph - N/A   Clear
9:55 PM 63.5 °F 49.3 °F 60% 29.96 in 10.0 mi North 8.1 mph - N/A   Clear
10:15 PM 63.5 °F 49.1 °F 59% 29.97 in 10.0 mi North 8.1 mph - N/A   Clear
10:35 PM 62.8 °F 49.1 °F 61% 29.97 in 10.0 mi NNW 6.9 mph - N/A   Clear
10:55 PM 62.2 °F 48.6 °F 61% 29.97 in 10.0 mi North 6.9 mph - N/A   Clear
11:15 PM 61.3 °F 48.6 °F 63% 29.98 in 10.0 mi North 4.6 mph - N/A   Clear
11:35 PM 59.4 °F 48.4 °F 67% 29.98 in 10.0 mi NNW 4.6 mph - N/A   Clear
11:55 PM 59.2 °F 48.6 °F 68% 29.98 in 10.0 mi NNW 3.5 mph - N/A   Clear